map of OMS home
Great Circle Mapper logo
OMS - Airport
Location
City:  Omsk, Russian Federation (Russia)
Name:Tsentralny
ICAO / IATA:UNOO / OMS

Details
Type:Airport (Aerodrome, Airfield)
Use:Public/Civil
Latitude:5458'01"N (54.967042)
Longitude:7318'38"E (73.310514)
Datum:WGS 1984
Elevation:311 ft (95 m)
Variation:11.87E (WMM2015 magnetic declination)
0.04 annual change
Runways:3
Longest:9435 × 235 ft (2876 × 71.5 m)

Time
Time Zone:UTC+6 (DST+7)

Weather
METAR:UNOO 250900Z 01007MPS 330V050 9999 SCT033CB 17/01 Q1013 R07/CLRD60 NOSIG RMK QFE751
TAF:UNOO 250750Z 2509/2609 36008MPS 9999 SCT030CB BKN033
FM251900 VRB01MPS 3000 BR NSC
TEMPO 2519/2601 0500 FG VV003
FM260300 27008MPS 6000 BKN033

Related Locations
Nearby:
Farthest:PNT: 11019 mi / 17733 km
Puerto Natales [Teniente Julio Gallardo], MA, CL

Find:

   beyond  
but within

Other Information
Maps:
NOTAMs:
Links:
Sources:

  
flag of Russian Federation (Russia)   

Sectional Chart

Flight Planning
at skyvector.com

Satellite Image

Google Maps Satellite View

 

Copyright © 2004-2015 Karl L. Swartz. All rights reserved.
The Great Circle Mapper name and logo are trademarks of the Great Circle Mapper.
All other trademarks mentioned herein belong to their respective owners.
Please see credits for attibutions and further copyright information.

  Follow gcmap on Facebook Follow gcmap on Twitter Follow gcmap on Google+

hCard Microformat

Geo Microformat